This demonstration page uses our WeatherBlox Daily Observations layout. Learn more.

Left ArrowRight Arrow

Hourly Observations for February 14, 2022

Temp ( °F °C ) Dew Point ( °F °C ) Humidity (%) Winds ( mph kmh ) Pressure ( in mb ) Visibility ( mi km ) Precip ( " mm )
12:56 am 00:56 Clear 22 -5.5 10 -12.3 59 59 NE 3 6 30.18 1022 10 16 0.00 0.00
1:56 am 01:56 Clear 21 -6.1 10 -12.4 61 61 Calm 30.18 1022 10 16 0.00 0.00
2:56 am 02:56 Clear 20 -6.5 9 -13 60 60 NE 3 6 30.17 1022 10 16 0.00 0.00
3:56 am 03:56 Clear 20 -6.4 10 -12.1 64 64 Calm 30.21 1023 10 16 0.00 0.00
4:56 am 04:56 Clear 19 -7 11 -11.7 69 69 NE 3 6 30.22 1023 10 16 0.00 0.00
5:56 am 05:56 Clear 20 -6.8 11 -11.7 68 68 NW 7 11 30.24 1024 10 16 0.00 0.00
6:56 am 06:56 Clear 20 -6.5 12 -11.1 70 70 NW 8 13 30.27 1025 10 16 0.00 0.00
7:56 am 07:56 Sunny 19 -7.5 11 -11.5 73 73 Calm 30.30 1026 8 13 0.00 0.00
8:56 am 08:56 Sunny 29 -1.4 17 -8.6 58 58 N 13 20 30.33 1027 10 16 0.00 0.00
9:56 am 09:56 Sunny 31 -0.6 13 -10.3 48 48 NNW 14 22 30.36 1028 10 16 0.00 0.00
10:56 am 10:56 Sunny 33 0.4 10 -12 39 39 N 10 17 30.37 1029 10 16 0.00 0.00
11:56 am 11:56 Sunny 35 1.6 11 -11.5 37 37 NNE 8 13 30.37 1028 10 16 0.00 0.00
12:56 pm 12:56 Sunny 36 2.3 11 -11.6 35 35 N 6 9 30.36 1028 10 16 0.00 0.00
1:56 pm 13:56 Sunny 37 3 10 -12.1 32 32 NNW 3 6 30.33 1027 10 16 0.00 0.00
2:56 pm 14:56 Sunny 38 3.2 10 -12.3 31 31 NE 7 11 30.30 1026 10 16 0.00 0.00
3:56 pm 15:56 Sunny 38 3.1 9 -12.8 30 30 NE 5 7 30.30 1026 10 16 0.00 0.00
4:56 pm 16:56 Sunny 38 3.4 10 -12.1 31 31 Calm 30.30 1026 10 16 0.00 0.00
5:56 pm 17:56 Sunny 34 1.2 14 -10 43 43 Calm 30.31 1026 10 16 0.00 0.00
6:56 pm 18:56 Clear 30 -1 11 -11.4 46 46 E 5 7 30.31 1026 10 16 0.00 0.00
7:56 pm 19:56 Clear 30 -1.2 12 -11.1 47 47 ESE 3 6 30.30 1026 10 16 0.00 0.00
8:56 pm 20:56 Partly Cloudy 28 -2.1 13 -10.6 53 53 Calm 30.29 1026 10 16 0.00 0.00
9:56 pm 21:56 Mostly Cloudy 27 -2.7 13 -10.5 55 55 E 7 11 30.30 1026 10 16 0.00 0.00
10:56 pm 22:56 Clear 26 -3.5 15 -9.7 63 63 E 7 11 30.29 1026 10 16 0.00 0.00
11:56 pm 23:56 Partly Cloudy 26 -3.3 16 -8.9 66 66 E 7 11 30.28 1025 10 16 0.00 0.00

Powered by AerisWeather